Saginaw, MI

7:57 AM EDT on October 20, 2017 (GMT -0400)
MBS International

Weather History for KMBS - June, 2012

Change the Weather History Date:

Wednesday, June 13, 2012

  Actual Average Record
Temperature  
Mean Temperature 56 °F 67 °F  
Max Temperature 66 °F 77 °F 90 °F (2001)
Min Temperature 46 °F 56 °F 46 °F (2006)
Degree Days  
Heating Degree Days 9    
Month to date heating degree days  
Since 1 June heating degree days  
Since 1 July heating degree days  
Cooling Degree Days 0    
Month to date cooling degree days  
Year to date cooling degree days  
Since 1 June cooling degree days  
Growing Degree Days 6 (Base 50)    
Moisture  
Dew Point 41 °F    
Average Humidity 56    
Maximum Humidity 74    
Minimum Humidity 36    
Precipitation  
Precipitation 0.00 in 0.10 in 0.74 in (1999)
Month to date precipitation 1.29  
Year to date precipitation 12.94  
Snow  
Snow 0.00 in - - ()
Month to date snowfall  
Since 1 June snowfall  
Since 1 July snowfall  
Snow Depth -    
Sea Level Pressure  
Sea Level Pressure 30.22 in    
Wind  
Wind Speed 8 mph (NNE)    
Max Wind Speed 14 mph    
Max Gust Speed 18 mph    
Visibility 10 miles    
Events      
T = Trace of Precipitation, MM = Missing Value Source: NWS Daily Summary

Daily Weather History Graph

Daily Weather History Graph

Search for Another Location

Airport or City:

Trip Planner

Search our weather history database for the weather conditions in past years. The results will help you decide how hot, cold, wet, or windy it might be!

Date:

Astronomy

Jun. 13, 2012 Rise Set
Actual Time 5:54 AM EDT 9:18 PM EDT
Civil Twilight 5:18 AM EDT 9:54 PM EDT
Nautical Twilight 4:32 AM EDT 10:41 PM EDT
Astronomical Twilight 3:33 AM EDT 11:39 PM EDT
Moon 2:15 AM EDT (6/13) 3:57 PM EDT (6/13)
Length of Visible Light 16h 35m
Length of Day
15h 23m
Waning Crescent, 29% of the Moon is Illuminated
Jun 13
Waning Crescent
Jun 19
New
Jun 26
First Quarter
Jul 3
Full
Jul 10
Last Quarter

Hourly Weather History & Observations

Time (EDT) Temp. Windchill Dew Point Humidity Pressure Visibility Wind Dir Wind Speed Gust Speed Precip Events Conditions
12:53 AM 52.0 °F - 44.1 °F 74% 30.18 in 10.0 mi North 5.8 mph - N/A   Clear
1:53 AM 50.0 °F - 42.1 °F 74% 30.19 in 10.0 mi NNW 5.8 mph - N/A   Clear
2:53 AM 48.9 °F - 39.9 °F 71% 30.19 in 10.0 mi North 6.9 mph - N/A   Clear
3:53 AM 48.9 °F - 37.9 °F 66% 30.19 in 10.0 mi North 9.2 mph - N/A   Clear
4:53 AM 46.9 °F - 37.9 °F 71% 30.20 in 10.0 mi NNW 5.8 mph - N/A   Clear
5:53 AM 46.4 °F 43.5 °F 37.4 °F 71% 30.22 in 10.0 mi NNW 5.8 mph - N/A   Clear
6:53 AM 48.2 °F - 37.4 °F 66% 30.24 in 10.0 mi North 5.8 mph - N/A   Clear
7:53 AM 52.0 °F - 37.9 °F 59% 30.25 in 10.0 mi North 8.1 mph - N/A   Clear
8:53 AM 55.0 °F - 41.0 °F 59% 30.25 in 10.0 mi North 9.2 mph - N/A   Clear
9:53 AM 57.0 °F - 41.0 °F 55% 30.27 in 10.0 mi NNE 10.4 mph 18.4 mph N/A   Clear
10:53 AM 59.0 °F - 41.0 °F 51% 30.26 in 10.0 mi ENE 11.5 mph 16.1 mph N/A   Clear
11:53 AM 61.0 °F - 42.1 °F 50% 30.25 in 10.0 mi NNE 8.1 mph - N/A   Clear
12:53 PM 63.0 °F - 43.0 °F 48% 30.25 in 10.0 mi NE 11.5 mph - N/A   Clear
1:53 PM 64.0 °F - 42.1 °F 45% 30.25 in 10.0 mi NNE 9.2 mph - N/A   Clear
2:53 PM 64.9 °F - 39.9 °F 40% 30.24 in 10.0 mi East 9.2 mph - N/A   Clear
3:53 PM 66.0 °F - 41.0 °F 40% 30.23 in 10.0 mi NE 8.1 mph - N/A   Clear
4:53 PM 64.9 °F - 43.0 °F 45% 30.22 in 10.0 mi NE 13.8 mph - N/A   Clear
5:53 PM 66.0 °F - 37.9 °F 36% 30.21 in 10.0 mi NE 10.4 mph - N/A   Clear
6:53 PM 64.9 °F - 39.0 °F 39% 30.21 in 10.0 mi NE 11.5 mph - N/A   Clear
7:53 PM 64.0 °F - 41.0 °F 43% 30.21 in 10.0 mi ENE 8.1 mph - N/A   Clear
8:53 PM 61.0 °F - 46.0 °F 58% 30.21 in 10.0 mi NE 5.8 mph - N/A   Clear
9:53 PM 57.9 °F - 43.0 °F 58% 30.22 in 10.0 mi ENE 5.8 mph - N/A   Clear
10:53 PM 55.9 °F - 41.0 °F 57% 30.22 in 10.0 mi East 4.6 mph - N/A   Clear
11:53 PM 54.0 °F - 42.1 °F 64% 30.21 in 10.0 mi East 5.8 mph - N/A   Clear